CDT,Max TemperatureF,Mean TemperatureF,Min TemperatureF,Max Dew PointF,MeanDew PointF,Min DewpointF,Max Humidity, Mean Humidity, Min Humidity, Max Sea Level PressureIn, Mean Sea Level PressureIn, Min Sea Level PressureIn, Max VisibilityMiles, Mean VisibilityMiles, Min VisibilityMiles, Max Wind SpeedMPH, Mean Wind SpeedMPH, Max Gust SpeedMPH,PrecipitationIn, CloudCover, Events, WindDirDegrees
2013-6-1,74,68,61,65,61,54,100,79,57,29.94,29.79,29.70,10,10,7,21,11,27,0.04,5,Rain,238
2013-6-2,65,61,56,55,54,53,86,79,72,30.05,30.01,29.94,10,10,10,15,8,18,0.00,8,,330
2013-6-3,71,63,55,54,51,46,86,68,49,30.09,30.03,29.97,10,10,10,12,5,15,0.00,3,,78
2013-6-4,75,65,54,60,56,51,86,72,57,30.05,30.01,29.95,10,10,10,16,8,21,0.00,0,,123
2013-6-5,73,65,57,63,59,55,93,78,63,30.01,29.95,29.89,10,9,4,10,5,13,0.12,3,Rain,104
2013-6-6,76,67,58,62,58,52,100,73,46,29.92,29.90,29.87,10,7,1,15,8,18,0.00,5,,335
2013-6-7,74,65,55,56,53,51,86,66,46,29.97,29.93,29.91,10,10,10,15,8,22,0.00,1,,342
2013-6-8,78,66,53,57,55,52,100,72,43,29.96,29.92,29.86,10,10,5,15,7,19,0.00,0,,159
2013-6-9,76,70,63,63,60,58,93,79,64,29.90,29.85,29.77,10,9,2,16,9,21,0.16,6,Rain,197
2013-6-10,81,72,62,63,61,58,90,72,54,29.90,29.85,29.79,10,10,10,18,7,24,0.00,4,,269
2013-6-11,92,78,64,70,66,62,93,70,47,29.91,29.88,29.84,10,10,9,22,10,27,0.00,0,,190
2013-6-12,92,83,74,72,70,66,84,67,49,29.89,29.82,29.75,10,10,10,30,15,37,0.00,1,,220
2013-6-13,86,76,66,64,60,57,73,58,42,30.04,29.97,29.83,10,10,10,23,9,31,0.00,3,,335
2013-6-14,84,74,63,64,62,58,87,67,46,30.06,30.01,29.95,10,10,10,18,6,23,0.00,0,,124
2013-6-15,85,76,67,73,67,63,93,79,65,30.08,30.00,29.94,10,9,2,29,9,38,0.93,5,Rain-Thunderstorm,206
2013-6-16,83,75,67,74,70,66,100,87,74,30.05,29.97,29.90,10,9,2,12,5,15,0.20,7,Rain-Thunderstorm,117
2013-6-17,81,73,64,71,67,62,93,81,69,30.00,29.94,29.90,10,10,10,18,6,24,T,3,Rain-Thunderstorm,294
2013-6-18,87,76,64,69,62,59,93,68,42,30.00,29.97,29.94,10,10,10,14,6,19,0.00,0,,318
2013-6-19,84,72,60,66,62,59,93,70,46,30.06,30.03,29.99,10,10,10,9,5,12,0.00,0,,117
2013-6-20,87,77,67,69,66,63,87,69,50,30.08,30.04,29.99,10,10,10,20,10,25,T,1,Rain-Thunderstorm,153
2013-6-21,91,81,71,74,71,66,84,70,56,30.06,30.02,29.96,10,10,10,20,10,23,T,0,,171
2013-6-22,90,82,73,73,71,66,87,72,56,30.05,30.00,29.93,10,10,10,18,11,24,0.00,0,,168
2013-6-23,89,79,69,73,67,64,90,75,59,30.02,29.97,29.90,10,9,0,26,11,34,0.45,3,Fog-Rain-Thunderstorm,148
2013-6-24,89,78,67,73,70,65,93,76,59,30.03,29.96,29.87,10,9,5,20,10,25,0.00,0,,170
2013-6-25,89,83,77,74,71,68,84,72,59,29.95,29.88,29.81,10,10,10,24,13,30,0.00,0,,186
2013-6-26,95,85,74,74,68,62,87,62,36,29.84,29.77,29.74,10,10,9,22,11,26,0.00,1,,254
2013-6-27,90,79,68,72,68,64,87,67,47,29.95,29.89,29.83,10,10,10,16,6,,0.00,0,,301
2013-6-28,88,78,68,71,62,53,90,61,31,29.93,29.83,29.76,10,10,7,26,12,32,0.00,2,Thunderstorm,304
2013-6-29,83,74,64,64,59,57,87,65,43,29.80,29.75,29.70,10,10,2,40,14,53,0.15,2,Rain,311
2013-6-30,78,71,64,62,61,57,87,71,54,29.97,29.89,29.80,10,10,10,22,12,26,T,7,Rain,353